owner,sensor,date,latitude,longitude,vertical_datum,mass_concentration_of_oxygen_in_sea_water,qcFlag 
DISL,ioos:station:DISL:BSCA:1,2013-06-01T00:00:00Z,30.3288,-87.8293,2.065,7.48,1111122 
DISL,ioos:station:DISL:BSCA:1,2013-06-01T00:30:00Z,30.3288,-87.8293,2.056,7.46,1111122 
DISL,ioos:station:DISL:BSCA:1,2013-06-01T01:00:00Z,30.3288,-87.8293,2.048,7.65,1111122 
DISL,ioos:station:DISL:BSCA:1,2013-06-01T01:30:00Z,30.3288,-87.8293,2.04,7.63,1111122 
DISL,ioos:station:DISL:BSCA:1,2013-06-01T02:00:00Z,30.3288,-87.8293,2.029,7.69,1111122 
DISL,ioos:station:DISL:BSCA:1,2013-06-01T02:30:00Z,30.3288,-87.8293,2.021,7.55,1111122 
DISL,ioos:station:DISL:BSCA:1,2013-06-01T03:00:00Z,30.3288,-87.8293,2.013,7.69,1111122 
DISL,ioos:station:DISL:BSCA:1,2013-06-01T03:30:00Z,30.3288,-87.8293,1.993,7.64,1111122 
DISL,ioos:station:DISL:BSCA:1,2013-06-01T04:00:00Z,30.3288,-87.8293,1.987,7.79,1111122 
DISL,ioos:station:DISL:BSCA:1,2013-06-01T04:30:00Z,30.3288,-87.8293,1.98,7.72,1111122 
DISL,ioos:station:DISL:BSCA:1,2013-06-01T05:00:00Z,30.3288,-87.8293,1.974,7.6,1111122 
DISL,ioos:station:DISL:BSCA:1,2013-06-01T05:30:00Z,30.3288,-87.8293,1.954,7.53,1111122 
DISL,ioos:station:DISL:BSCA:1,2013-06-01T06:00:00Z,30.3288,-87.8293,1.952,7.5,1111122 
DISL,ioos:station:DISL:BSCA:1,2013-06-01T06:30:00Z,30.3288,-87.8293,1.949,7.55,1111122 
DISL,ioos:station:DISL:BSCA:1,2013-06-01T07:00:00Z,30.3288,-87.8293,1.96,7.45,1111122 
DISL,ioos:station:DISL:BSCA:1,2013-06-01T07:30:00Z,30.3288,-87.8293,1.967,7.46,1111122 
DISL,ioos:station:DISL:BSCA:1,2013-06-01T08:00:00Z,30.3288,-87.8293,2.002,7.41,1111122 
DISL,ioos:station:DISL:BSCA:1,2013-06-01T08:30:00Z,30.3288,-87.8293,2.018,7.24,1111122 
DISL,ioos:station:DISL:BSCA:1,2013-06-01T09:00:00Z,30.3288,-87.8293,2.044,7.13,1111122 
DISL,ioos:station:DISL:BSCA:1,2013-06-01T09:30:00Z,30.3288,-87.8293,2.058,6.91,1111122 
DISL,ioos:station:DISL:BSCA:1,2013-06-01T10:00:00Z,30.3288,-87.8293,2.063,6.85,1111122 
DISL,ioos:station:DISL:BSCA:1,2013-06-01T10:30:00Z,30.3288,-87.8293,2.066,6.7,1111122 
DISL,ioos:station:DISL:BSCA:1,2013-06-01T11:00:00Z,30.3288,-87.8293,2.057,6.67,1111122 
DISL,ioos:station:DISL:BSCA:1,2013-06-01T11:30:00Z,30.3288,-87.8293,2.048,6.74,1111122 
DISL,ioos:station:DISL:BSCA:1,2013-06-01T12:00:00Z,30.3288,-87.8293,2.039,6.96,1111122 
DISL,ioos:station:DISL:BSCA:1,2013-06-01T12:30:00Z,30.3288,-87.8293,2.038,7.11,1111122 
DISL,ioos:station:DISL:BSCA:1,2013-06-01T13:00:00Z,30.3288,-87.8293,2.049,6.8,1111122 
DISL,ioos:station:DISL:BSCA:1,2013-06-01T13:30:00Z,30.3288,-87.8293,2.051,6.71,1111122 
DISL,ioos:station:DISL:BSCA:1,2013-06-01T14:00:00Z,30.3288,-87.8293,2.062,7.1,1111122 
DISL,ioos:station:DISL:BSCA:1,2013-06-01T14:30:00Z,30.3288,-87.8293,2.071,7.48,1111122 
DISL,ioos:station:DISL:BSCA:1,2013-06-01T15:00:00Z,30.3288,-87.8293,2.071,7.53,1111122 
DISL,ioos:station:DISL:BSCA:1,2013-06-01T15:30:00Z,30.3288,-87.8293,2.07,7.97,1111122 
DISL,ioos:station:DISL:BSCA:1,2013-06-01T16:00:00Z,30.3288,-87.8293,2.076,7.75,1111122 
DISL,ioos:station:DISL:BSCA:1,2013-06-01T16:30:00Z,30.3288,-87.8293,2.068,7.88,1111122 
DISL,ioos:station:DISL:BSCA:1,2013-06-01T17:00:00Z,30.3288,-87.8293,2.055,8.22,1111122 
DISL,ioos:station:DISL:BSCA:1,2013-06-01T17:30:00Z,30.3288,-87.8293,2.03,8.16,1111122 
DISL,ioos:station:DISL:BSCA:1,2013-06-01T18:00:00Z,30.3288,-87.8293,2.02,8.16,1111122 
DISL,ioos:station:DISL:BSCA:1,2013-06-01T18:30:00Z,30.3288,-87.8293,2.015,8.11,1111122 
DISL,ioos:station:DISL:BSCA:1,2013-06-01T19:00:00Z,30.3288,-87.8293,2.017,8.34,1111122 
DISL,ioos:station:DISL:BSCA:1,2013-06-01T19:30:00Z,30.3288,-87.8293,2.028,8.31,1111122 
DISL,ioos:station:DISL:BSCA:1,2013-06-01T20:00:00Z,30.3288,-87.8293,2.029,8.52,1111122 
DISL,ioos:station:DISL:BSCA:1,2013-06-01T20:30:00Z,30.3288,-87.8293,2.027,8.53,1111122 
DISL,ioos:station:DISL:BSCA:1,2013-06-01T21:00:00Z,30.3288,-87.8293,2.012,8.46,1111122 
DISL,ioos:station:DISL:BSCA:1,2013-06-01T21:30:00Z,30.3288,-87.8293,1.996,8.38,1111122 
DISL,ioos:station:DISL:BSCA:1,2013-06-01T22:00:00Z,30.3288,-87.8293,1.986,8.1,1111122 
DISL,ioos:station:DISL:BSCA:1,2013-06-01T22:30:00Z,30.3288,-87.8293,1.988,8.11,1111122 
DISL,ioos:station:DISL:BSCA:1,2013-06-01T23:00:00Z,30.3288,-87.8293,1.977,8.04,1111122 
DISL,ioos:station:DISL:BSCA:1,2013-06-01T23:30:00Z,30.3288,-87.8293,1.981,8.2,1111122 
DISL,ioos:station:DISL:BSCA:1,2013-06-02T00:00:00Z,30.3288,-87.8293,1.974,7.99,1111122 
DISL,ioos:station:DISL:BSCA:1,2013-06-02T00:30:00Z,30.3288,-87.8293,1.973,8.06,1111122 
DISL,ioos:station:DISL:BSCA:1,2013-06-02T01:00:00Z,30.3288,-87.8293,1.972,7.7,1111122 
DISL,ioos:station:DISL:BSCA:1,2013-06-02T01:30:00Z,30.3288,-87.8293,1.97,7.88,1111122 
DISL,ioos:station:DISL:BSCA:1,2013-06-02T02:00:00Z,30.3288,-87.8293,1.966,7.76,1111122 
DISL,ioos:station:DISL:BSCA:1,2013-06-02T02:30:00Z,30.3288,-87.8293,1.962,7.97,1111122 
DISL,ioos:station:DISL:BSCA:1,2013-06-02T03:00:00Z,30.3288,-87.8293,1.957,7.75,1111122 
DISL,ioos:station:DISL:BSCA:1,2013-06-02T03:30:00Z,30.3288,-87.8293,1.949,7.53,1111122 
DISL,ioos:station:DISL:BSCA:1,2013-06-02T04:00:00Z,30.3288,-87.8293,1.956,7.62,1111122 
DISL,ioos:station:DISL:BSCA:1,2013-06-02T04:30:00Z,30.3288,-87.8293,1.959,7.53,1111122 
DISL,ioos:station:DISL:BSCA:1,2013-06-02T05:00:00Z,30.3288,-87.8293,1.953,7.57,1111122 
DISL,ioos:station:DISL:BSCA:1,2013-06-02T05:30:00Z,30.3288,-87.8293,1.96,7.3,1111122 
DISL,ioos:station:DISL:BSCA:1,2013-06-02T06:00:00Z,30.3288,-87.8293,1.954,6.67,1111122 
DISL,ioos:station:DISL:BSCA:1,2013-06-02T06:30:00Z,30.3288,-87.8293,1.954,7.06,1111122 
DISL,ioos:station:DISL:BSCA:1,2013-06-02T07:00:00Z,30.3288,-87.8293,1.963,7.08,1111122 
DISL,ioos:station:DISL:BSCA:1,2013-06-02T07:30:00Z,30.3288,-87.8293,1.965,6.49,1111122 
DISL,ioos:station:DISL:BSCA:1,2013-06-02T08:00:00Z,30.3288,-87.8293,1.977,6.53,1111122 
DISL,ioos:station:DISL:BSCA:1,2013-06-02T08:30:00Z,30.3288,-87.8293,1.991,7.35,1111122 
DISL,ioos:station:DISL:BSCA:1,2013-06-02T09:00:00Z,30.3288,-87.8293,2.004,7.67,1111122 
DISL,ioos:station:DISL:BSCA:1,2013-06-02T09:30:00Z,30.3288,-87.8293,2.022,7.73,1111122 
DISL,ioos:station:DISL:BSCA:1,2013-06-02T10:00:00Z,30.3288,-87.8293,2.041,7.73,1111122 
DISL,ioos:station:DISL:BSCA:1,2013-06-02T10:30:00Z,30.3288,-87.8293,2.051,7.79,1111122 
DISL,ioos:station:DISL:BSCA:1,2013-06-02T11:00:00Z,30.3288,-87.8293,2.062,7.7,1111122 
DISL,ioos:station:DISL:BSCA:1,2013-06-02T11:30:00Z,30.3288,-87.8293,2.061,7.49,1111122 
DISL,ioos:station:DISL:BSCA:1,2013-06-02T12:00:00Z,30.3288,-87.8293,2.042,6.6,1111122 
DISL,ioos:station:DISL:BSCA:1,2013-06-02T12:30:00Z,30.3288,-87.8293,2.027,6.28,1111122 
DISL,ioos:station:DISL:BSCA:1,2013-06-02T13:00:00Z,30.3288,-87.8293,2.021,7.29,1111122 
DISL,ioos:station:DISL:BSCA:1,2013-06-02T13:30:00Z,30.3288,-87.8293,2.028,6.93,1111122 
DISL,ioos:station:DISL:BSCA:1,2013-06-02T14:00:00Z,30.3288,-87.8293,2.031,4.65,1111122 
DISL,ioos:station:DISL:BSCA:1,2013-06-02T14:30:00Z,30.3288,-87.8293,2.046,6.48,1111122 
DISL,ioos:station:DISL:BSCA:1,2013-06-02T15:00:00Z,30.3288,-87.8293,2.02,5.31,1111122 
DISL,ioos:station:DISL:BSCA:1,2013-06-02T15:30:00Z,30.3288,-87.8293,1.976,5.09,1111122 
DISL,ioos:station:DISL:BSCA:1,2013-06-02T16:00:00Z,30.3288,-87.8293,1.92,5.4,1111122 
DISL,ioos:station:DISL:BSCA:1,2013-06-02T16:30:00Z,30.3288,-87.8293,1.864,5.6,1111122 
DISL,ioos:station:DISL:BSCA:1,2013-06-02T17:00:00Z,30.3288,-87.8293,1.843,4.93,1111122 
DISL,ioos:station:DISL:BSCA:1,2013-06-02T17:30:00Z,30.3288,-87.8293,1.836,4.9,1111122 
DISL,ioos:station:DISL:BSCA:1,2013-06-02T18:00:00Z,30.3288,-87.8293,1.825,4.95,1111122 
DISL,ioos:station:DISL:BSCA:1,2013-06-02T18:30:00Z,30.3288,-87.8293,1.848,4.99,1111122 
DISL,ioos:station:DISL:BSCA:1,2013-06-02T19:00:00Z,30.3288,-87.8293,1.86,5.0,1111122 
DISL,ioos:station:DISL:BSCA:1,2013-06-02T19:30:00Z,30.3288,-87.8293,1.879,4.77,1111122 
DISL,ioos:station:DISL:BSCA:1,2013-06-02T20:00:00Z,30.3288,-87.8293,1.87,4.57,1111122 
DISL,ioos:station:DISL:BSCA:1,2013-06-02T20:30:00Z,30.3288,-87.8293,1.874,4.88,1111122 
DISL,ioos:station:DISL:BSCA:1,2013-06-02T21:00:00Z,30.3288,-87.8293,1.874,5.77,1111122 
DISL,ioos:station:DISL:BSCA:1,2013-06-02T21:30:00Z,30.3288,-87.8293,1.866,6.36,1111122 
DISL,ioos:station:DISL:BSCA:1,2013-06-02T22:00:00Z,30.3288,-87.8293,1.88,8.01,1111122 
DISL,ioos:station:DISL:BSCA:1,2013-06-02T22:30:00Z,30.3288,-87.8293,1.895,8.26,1111122 
DISL,ioos:station:DISL:BSCA:1,2013-06-02T23:00:00Z,30.3288,-87.8293,1.919,8.34,1111122 
DISL,ioos:station:DISL:BSCA:1,2013-06-02T23:30:00Z,30.3288,-87.8293,1.938,8.31,1111122 
DISL,ioos:station:DISL:BSCA:1,2013-06-03T00:00:00Z,30.3288,-87.8293,1.938,8.72,1111122 
DISL,ioos:station:DISL:BSCA:1,2013-06-03T00:30:00Z,30.3288,-87.8293,1.939,8.58,1111122 
DISL,ioos:station:DISL:BSCA:1,2013-06-03T01:00:00Z,30.3288,-87.8293,1.927,8.6,1111122 
DISL,ioos:station:DISL:BSCA:1,2013-06-03T01:30:00Z,30.3288,-87.8293,1.942,8.2,1111122 
DISL,ioos:station:DISL:BSCA:1,2013-06-03T02:00:00Z,30.3288,-87.8293,1.953,7.95,1111122 
DISL,ioos:station:DISL:BSCA:1,2013-06-03T02:30:00Z,30.3288,-87.8293,1.982,7.5,1111122 
DISL,ioos:station:DISL:BSCA:1,2013-06-03T03:00:00Z,30.3288,-87.8293,1.997,7.34,1111122 
DISL,ioos:station:DISL:BSCA:1,2013-06-03T03:30:00Z,30.3288,-87.8293,2.002,5.51,1111122 
DISL,ioos:station:DISL:BSCA:1,2013-06-03T04:00:00Z,30.3288,-87.8293,2.022,8.29,1111122 
DISL,ioos:station:DISL:BSCA:1,2013-06-03T04:30:00Z,30.3288,-87.8293,1.985,8.35,1111122 
DISL,ioos:station:DISL:BSCA:1,2013-06-03T05:00:00Z,30.3288,-87.8293,1.918,8.36,1111122 
DISL,ioos:station:DISL:BSCA:1,2013-06-03T05:30:00Z,30.3288,-87.8293,1.903,8.18,1111122 
DISL,ioos:station:DISL:BSCA:1,2013-06-03T06:00:00Z,30.3288,-87.8293,1.868,7.71,1111122 
DISL,ioos:station:DISL:BSCA:1,2013-06-03T06:30:00Z,30.3288,-87.8293,1.883,4.05,1111122 
DISL,ioos:station:DISL:BSCA:1,2013-06-03T07:00:00Z,30.3288,-87.8293,1.896,7.3,1111122 
DISL,ioos:station:DISL:BSCA:1,2013-06-03T07:30:00Z,30.3288,-87.8293,1.912,7.52,1111122 
DISL,ioos:station:DISL:BSCA:1,2013-06-03T08:00:00Z,30.3288,-87.8293,1.939,7.42,1111122 
DISL,ioos:station:DISL:BSCA:1,2013-06-03T08:30:00Z,30.3288,-87.8293,1.965,7.41,1111122 
DISL,ioos:station:DISL:BSCA:1,2013-06-03T09:00:00Z,30.3288,-87.8293,1.992,7.21,1111122 
DISL,ioos:station:DISL:BSCA:1,2013-06-03T09:30:00Z,30.3288,-87.8293,2.004,6.83,1111122 
DISL,ioos:station:DISL:BSCA:1,2013-06-03T10:00:00Z,30.3288,-87.8293,2.035,6.59,1111122 
DISL,ioos:station:DISL:BSCA:1,2013-06-03T10:30:00Z,30.3288,-87.8293,2.054,6.68,1111122 
DISL,ioos:station:DISL:BSCA:1,2013-06-03T11:00:00Z,30.3288,-87.8293,2.068,6.91,1111122 
DISL,ioos:station:DISL:BSCA:1,2013-06-03T11:30:00Z,30.3288,-87.8293,2.079,7.07,1111122 
DISL,ioos:station:DISL:BSCA:1,2013-06-03T12:00:00Z,30.3288,-87.8293,2.091,6.85,1111122 
DISL,ioos:station:DISL:BSCA:1,2013-06-03T12:30:00Z,30.3288,-87.8293,2.093,5.93,1111122 
DISL,ioos:station:DISL:BSCA:1,2013-06-03T13:00:00Z,30.3288,-87.8293,2.1,3.48,1111122 
DISL,ioos:station:DISL:BSCA:1,2013-06-03T13:30:00Z,30.3288,-87.8293,2.103,3.55,1111122 
DISL,ioos:station:DISL:BSCA:1,2013-06-03T14:00:00Z,30.3288,-87.8293,2.101,3.74,1111122 
DISL,ioos:station:DISL:BSCA:1,2013-06-03T14:30:00Z,30.3288,-87.8293,2.101,5.05,1111122 
DISL,ioos:station:DISL:BSCA:1,2013-06-03T15:00:00Z,30.3288,-87.8293,2.084,4.9,1111122 
DISL,ioos:station:DISL:BSCA:1,2013-06-03T15:30:00Z,30.3288,-87.8293,2.069,4.89,1111122 
DISL,ioos:station:DISL:BSCA:1,2013-06-03T16:00:00Z,30.3288,-87.8293,2.052,5.89,1111122 
DISL,ioos:station:DISL:BSCA:1,2013-06-03T16:30:00Z,30.3288,-87.8293,1.988,6.08,1111122 
DISL,ioos:station:DISL:BSCA:1,2013-06-03T17:00:00Z,30.3288,-87.8293,1.975,5.67,1111122 
DISL,ioos:station:DISL:BSCA:1,2013-06-03T17:30:00Z,30.3288,-87.8293,1.925,6.49,1111122 
DISL,ioos:station:DISL:BSCA:1,2013-06-03T18:00:00Z,30.3288,-87.8293,1.896,6.17,1111122 
DISL,ioos:station:DISL:BSCA:1,2013-06-03T18:30:00Z,30.3288,-87.8293,1.857,5.51,1111122 
DISL,ioos:station:DISL:BSCA:1,2013-06-03T19:00:00Z,30.3288,-87.8293,1.835,5.34,1111122 
DISL,ioos:station:DISL:BSCA:1,2013-06-03T19:30:00Z,30.3288,-87.8293,1.82,4.12,1111122 
DISL,ioos:station:DISL:BSCA:1,2013-06-03T20:00:00Z,30.3288,-87.8293,1.802,4.7,1111122 
DISL,ioos:station:DISL:BSCA:1,2013-06-03T20:30:00Z,30.3288,-87.8293,1.785,4.24,1111122 
DISL,ioos:station:DISL:BSCA:1,2013-06-03T21:00:00Z,30.3288,-87.8293,1.765,4.09,1111122 
DISL,ioos:station:DISL:BSCA:1,2013-06-03T21:30:00Z,30.3288,-87.8293,1.746,3.72,1111122 
DISL,ioos:station:DISL:BSCA:1,2013-06-03T22:00:00Z,30.3288,-87.8293,1.73,4.2,1111122 
DISL,ioos:station:DISL:BSCA:1,2013-06-03T22:30:00Z,30.3288,-87.8293,1.718,3.21,1111122 
DISL,ioos:station:DISL:BSCA:1,2013-06-03T23:00:00Z,30.3288,-87.8293,1.712,3.91,1111122 
DISL,ioos:station:DISL:BSCA:1,2013-06-03T23:30:00Z,30.3288,-87.8293,1.713,4.15,1111122 
DISL,ioos:station:DISL:BSCA:1,2013-06-04T00:00:00Z,30.3288,-87.8293,1.729,3.86,1111122 
DISL,ioos:station:DISL:BSCA:1,2013-06-04T00:30:00Z,30.3288,-87.8293,1.736,2.63,1111122 
DISL,ioos:station:DISL:BSCA:1,2013-06-04T01:00:00Z,30.3288,-87.8293,1.768,2.12,1111122 
DISL,ioos:station:DISL:BSCA:1,2013-06-04T01:30:00Z,30.3288,-87.8293,1.783,1.26,1111122 
DISL,ioos:station:DISL:BSCA:1,2013-06-04T02:00:00Z,30.3288,-87.8293,1.79,1.3,1111122 
DISL,ioos:station:DISL:BSCA:1,2013-06-04T02:30:00Z,30.3288,-87.8293,1.793,2.09,1111122 
DISL,ioos:station:DISL:BSCA:1,2013-06-04T03:00:00Z,30.3288,-87.8293,1.804,3.09,1111122 
DISL,ioos:station:DISL:BSCA:1,2013-06-04T03:30:00Z,30.3288,-87.8293,1.819,3.43,1111122 
DISL,ioos:station:DISL:BSCA:1,2013-06-04T04:00:00Z,30.3288,-87.8293,1.828,6.83,1111122 
DISL,ioos:station:DISL:BSCA:1,2013-06-04T04:30:00Z,30.3288,-87.8293,1.847,7.34,1111122 
DISL,ioos:station:DISL:BSCA:1,2013-06-04T05:00:00Z,30.3288,-87.8293,1.869,6.52,1111122 
DISL,ioos:station:DISL:BSCA:1,2013-06-04T05:30:00Z,30.3288,-87.8293,1.896,6.47,1111122 
DISL,ioos:station:DISL:BSCA:1,2013-06-04T06:00:00Z,30.3288,-87.8293,1.919,6.49,1111122 
DISL,ioos:station:DISL:BSCA:1,2013-06-04T06:30:00Z,30.3288,-87.8293,1.959,6.6,1111122 
DISL,ioos:station:DISL:BSCA:1,2013-06-04T07:00:00Z,30.3288,-87.8293,1.981,6.67,1111122 
DISL,ioos:station:DISL:BSCA:1,2013-06-04T07:30:00Z,30.3288,-87.8293,1.996,6.51,1111122 
DISL,ioos:station:DISL:BSCA:1,2013-06-04T08:00:00Z,30.3288,-87.8293,2.003,6.23,1111122 
DISL,ioos:station:DISL:BSCA:1,2013-06-04T08:30:00Z,30.3288,-87.8293,2.029,6.49,1111122 
DISL,ioos:station:DISL:BSCA:1,2013-06-04T09:00:00Z,30.3288,-87.8293,2.032,5.73,1111122 
DISL,ioos:station:DISL:BSCA:1,2013-06-04T09:30:00Z,30.3288,-87.8293,2.064,5.84,1111122 
DISL,ioos:station:DISL:BSCA:1,2013-06-04T10:00:00Z,30.3288,-87.8293,2.064,5.45,1111122 
DISL,ioos:station:DISL:BSCA:1,2013-06-04T10:30:00Z,30.3288,-87.8293,2.08,4.92,1111122 
DISL,ioos:station:DISL:BSCA:1,2013-06-04T11:00:00Z,30.3288,-87.8293,2.09,4.98,1111122 
DISL,ioos:station:DISL:BSCA:1,2013-06-04T11:30:00Z,30.3288,-87.8293,2.091,5.03,1111122 
DISL,ioos:station:DISL:BSCA:1,2013-06-04T12:00:00Z,30.3288,-87.8293,2.085,4.51,1111122 
DISL,ioos:station:DISL:BSCA:1,2013-06-04T12:30:00Z,30.3288,-87.8293,2.088,4.58,1111122 
DISL,ioos:station:DISL:BSCA:1,2013-06-04T13:00:00Z,30.3288,-87.8293,2.09,2.37,1111122 
DISL,ioos:station:DISL:BSCA:1,2013-06-04T13:30:00Z,30.3288,-87.8293,2.094,1.44,1111122 
DISL,ioos:station:DISL:BSCA:1,2013-06-04T14:00:00Z,30.3288,-87.8293,2.079,2.05,1111122 
DISL,ioos:station:DISL:BSCA:1,2013-06-04T14:30:00Z,30.3288,-87.8293,2.065,0.76,1111122 
DISL,ioos:station:DISL:BSCA:1,2013-06-04T15:00:00Z,30.3288,-87.8293,2.046,0.95,1111122 
DISL,ioos:station:DISL:BSCA:1,2013-06-04T15:30:00Z,30.3288,-87.8293,2.03,0.64,1111122 
DISL,ioos:station:DISL:BSCA:1,2013-06-04T16:00:00Z,30.3288,-87.8293,2.009,1.81,1111122 
DISL,ioos:station:DISL:BSCA:1,2013-06-04T16:30:00Z,30.3288,-87.8293,1.99,2.2,1111122 
DISL,ioos:station:DISL:BSCA:1,2013-06-04T17:00:00Z,30.3288,-87.8293,1.967,2.55,1111122 
DISL,ioos:station:DISL:BSCA:1,2013-06-04T17:30:00Z,30.3288,-87.8293,1.942,2.75,1111122 
DISL,ioos:station:DISL:BSCA:1,2013-06-04T18:00:00Z,30.3288,-87.8293,1.922,2.93,1111122 
DISL,ioos:station:DISL:BSCA:1,2013-06-04T18:30:00Z,30.3288,-87.8293,1.892,3.48,1111122 
DISL,ioos:station:DISL:BSCA:1,2013-06-04T19:00:00Z,30.3288,-87.8293,1.867,5.68,1111122 
DISL,ioos:station:DISL:BSCA:1,2013-06-04T19:30:00Z,30.3288,-87.8293,1.842,6.38,1111122 
DISL,ioos:station:DISL:BSCA:1,2013-06-04T20:00:00Z,30.3288,-87.8293,1.81,6.83,1111122 
DISL,ioos:station:DISL:BSCA:1,2013-06-04T20:30:00Z,30.3288,-87.8293,1.785,7.24,1111122 
DISL,ioos:station:DISL:BSCA:1,2013-06-04T21:00:00Z,30.3288,-87.8293,1.768,7.72,1111122 
DISL,ioos:station:DISL:BSCA:1,2013-06-04T21:30:00Z,30.3288,-87.8293,1.74,8.13,1111122 
DISL,ioos:station:DISL:BSCA:1,2013-06-04T22:00:00Z,30.3288,-87.8293,1.718,8.25,1111122 
DISL,ioos:station:DISL:BSCA:1,2013-06-04T22:30:00Z,30.3288,-87.8293,1.702,8.12,1111122 
DISL,ioos:station:DISL:BSCA:1,2013-06-04T23:00:00Z,30.3288,-87.8293,1.71,8.3,1111122 
DISL,ioos:station:DISL:BSCA:1,2013-06-04T23:30:00Z,30.3288,-87.8293,1.69,7.91,1111122 
DISL,ioos:station:DISL:BSCA:1,2013-06-05T00:00:00Z,30.3288,-87.8293,1.69,7.82,1111122 
DISL,ioos:station:DISL:BSCA:1,2013-06-05T00:30:00Z,30.3288,-87.8293,1.699,7.62,1111122 
DISL,ioos:station:DISL:BSCA:1,2013-06-05T01:00:00Z,30.3288,-87.8293,1.708,7.44,1111122 
DISL,ioos:station:DISL:BSCA:1,2013-06-05T01:30:00Z,30.3288,-87.8293,1.722,7.37,1111122 
DISL,ioos:station:DISL:BSCA:1,2013-06-05T02:00:00Z,30.3288,-87.8293,1.73,7.34,1111122 
DISL,ioos:station:DISL:BSCA:1,2013-06-05T02:30:00Z,30.3288,-87.8293,1.727,7.52,1111122 
DISL,ioos:station:DISL:BSCA:1,2013-06-05T03:00:00Z,30.3288,-87.8293,1.733,7.11,1111122 
DISL,ioos:station:DISL:BSCA:1,2013-06-05T03:30:00Z,30.3288,-87.8293,1.763,7.13,1111122 
DISL,ioos:station:DISL:BSCA:1,2013-06-05T04:00:00Z,30.3288,-87.8293,1.813,6.84,1111122 
DISL,ioos:station:DISL:BSCA:1,2013-06-05T04:30:00Z,30.3288,-87.8293,1.841,6.68,1111122 
DISL,ioos:station:DISL:BSCA:1,2013-06-05T05:00:00Z,30.3288,-87.8293,1.885,6.93,1111122 
DISL,ioos:station:DISL:BSCA:1,2013-06-05T05:30:00Z,30.3288,-87.8293,1.911,6.77,1111122 
DISL,ioos:station:DISL:BSCA:1,2013-06-05T06:00:00Z,30.3288,-87.8293,1.924,6.82,1111122 
DISL,ioos:station:DISL:BSCA:1,2013-06-05T06:30:00Z,30.3288,-87.8293,1.943,6.64,1111122 
DISL,ioos:station:DISL:BSCA:1,2013-06-05T07:00:00Z,30.3288,-87.8293,1.95,6.48,1111122 
DISL,ioos:station:DISL:BSCA:1,2013-06-05T07:30:00Z,30.3288,-87.8293,1.968,6.7,1111122 
DISL,ioos:station:DISL:BSCA:1,2013-06-05T08:00:00Z,30.3288,-87.8293,1.983,6.71,1111122 
DISL,ioos:station:DISL:BSCA:1,2013-06-05T08:30:00Z,30.3288,-87.8293,2.009,6.65,1111122 
DISL,ioos:station:DISL:BSCA:1,2013-06-05T09:00:00Z,30.3288,-87.8293,2.025,6.67,1111122 
DISL,ioos:station:DISL:BSCA:1,2013-06-05T09:30:00Z,30.3288,-87.8293,2.047,6.53,1111122 
DISL,ioos:station:DISL:BSCA:1,2013-06-05T10:00:00Z,30.3288,-87.8293,2.084,6.02,1111122 
DISL,ioos:station:DISL:BSCA:1,2013-06-05T10:30:00Z,30.3288,-87.8293,2.118,5.4,1111122 
DISL,ioos:station:DISL:BSCA:1,2013-06-05T11:00:00Z,30.3288,-87.8293,2.125,5.08,1111122 
DISL,ioos:station:DISL:BSCA:1,2013-06-05T11:30:00Z,30.3288,-87.8293,2.153,5.05,1111122 
DISL,ioos:station:DISL:BSCA:1,2013-06-05T12:00:00Z,30.3288,-87.8293,2.156,5.32,1111122 
DISL,ioos:station:DISL:BSCA:1,2013-06-05T12:30:00Z,30.3288,-87.8293,2.155,5.23,1111122 
DISL,ioos:station:DISL:BSCA:1,2013-06-05T13:00:00Z,30.3288,-87.8293,2.159,4.4,1111122 
DISL,ioos:station:DISL:BSCA:1,2013-06-05T13:30:00Z,30.3288,-87.8293,2.149,6.12,1111122 
DISL,ioos:station:DISL:BSCA:1,2013-06-05T14:00:00Z,30.3288,-87.8293,2.192,4.81,1111122 
DISL,ioos:station:DISL:BSCA:1,2013-06-05T14:30:00Z,30.3288,-87.8293,2.146,4.38,1111122 
DISL,ioos:station:DISL:BSCA:1,2013-06-05T15:00:00Z,30.3288,-87.8293,2.144,6.96,1111122 
DISL,ioos:station:DISL:BSCA:1,2013-06-05T15:30:00Z,30.3288,-87.8293,2.128,6.44,1111122 
DISL,ioos:station:DISL:BSCA:1,2013-06-05T16:00:00Z,30.3288,-87.8293,2.108,6.72,1111122 
DISL,ioos:station:DISL:BSCA:1,2013-06-05T16:30:00Z,30.3288,-87.8293,2.091,7.43,1111122 
DISL,ioos:station:DISL:BSCA:1,2013-06-05T17:00:00Z,30.3288,-87.8293,2.069,6.17,1111122 
DISL,ioos:station:DISL:BSCA:1,2013-06-05T17:30:00Z,30.3288,-87.8293,2.055,6.3,1111122 
DISL,ioos:station:DISL:BSCA:1,2013-06-05T18:00:00Z,30.3288,-87.8293,2.011,7.05,1111122 
DISL,ioos:station:DISL:BSCA:1,2013-06-05T18:30:00Z,30.3288,-87.8293,1.972,6.32,1111122 
DISL,ioos:station:DISL:BSCA:1,2013-06-05T19:00:00Z,30.3288,-87.8293,1.934,6.83,1111122 
DISL,ioos:station:DISL:BSCA:1,2013-06-05T19:30:00Z,30.3288,-87.8293,1.888,6.48,1111122 
DISL,ioos:station:DISL:BSCA:1,2013-06-05T20:00:00Z,30.3288,-87.8293,1.869,6.64,1111122 
DISL,ioos:station:DISL:BSCA:1,2013-06-05T20:30:00Z,30.3288,-87.8293,1.833,7.01,1111122 
DISL,ioos:station:DISL:BSCA:1,2013-06-05T21:00:00Z,30.3288,-87.8293,1.805,7.3,1111122 
DISL,ioos:station:DISL:BSCA:1,2013-06-05T21:30:00Z,30.3288,-87.8293,1.783,7.58,1111122 
DISL,ioos:station:DISL:BSCA:1,2013-06-05T22:00:00Z,30.3288,-87.8293,1.77,7.75,1111122 
DISL,ioos:station:DISL:BSCA:1,2013-06-05T22:30:00Z,30.3288,-87.8293,1.775,8.29,1111122 
DISL,ioos:station:DISL:BSCA:1,2013-06-05T23:00:00Z,30.3288,-87.8293,1.775,8.25,1111122 
DISL,ioos:station:DISL:BSCA:1,2013-06-05T23:30:00Z,30.3288,-87.8293,1.769,7.8,1111122 
DISL,ioos:station:DISL:BSCA:1,2013-06-06T00:00:00Z,30.3288,-87.8293,1.772,8.22,1111122 
DISL,ioos:station:DISL:BSCA:1,2013-06-06T00:30:00Z,30.3288,-87.8293,1.759,8.05,1111122 
DISL,ioos:station:DISL:BSCA:1,2013-06-06T01:00:00Z,30.3288,-87.8293,1.753,7.95,1111122 
DISL,ioos:station:DISL:BSCA:1,2013-06-06T01:30:00Z,30.3288,-87.8293,1.75,7.76,1111122 
DISL,ioos:station:DISL:BSCA:1,2013-06-06T02:00:00Z,30.3288,-87.8293,1.741,7.62,1111122 
DISL,ioos:station:DISL:BSCA:1,2013-06-06T02:30:00Z,30.3288,-87.8293,1.761,7.57,1111122 
DISL,ioos:station:DISL:BSCA:1,2013-06-06T03:00:00Z,30.3288,-87.8293,1.787,7.3,1111122 
DISL,ioos:station:DISL:BSCA:1,2013-06-06T03:30:00Z,30.3288,-87.8293,1.816,5.51,1111122 
DISL,ioos:station:DISL:BSCA:1,2013-06-06T04:00:00Z,30.3288,-87.8293,1.84,5.12,1111122 
DISL,ioos:station:DISL:BSCA:1,2013-06-06T04:30:00Z,30.3288,-87.8293,1.831,7.11,1111122 
DISL,ioos:station:DISL:BSCA:1,2013-06-06T05:00:00Z,30.3288,-87.8293,1.888,3.79,1111122 
DISL,ioos:station:DISL:BSCA:1,2013-06-06T05:30:00Z,30.3288,-87.8293,1.866,6.08,1111122 
DISL,ioos:station:DISL:BSCA:1,2013-06-06T06:00:00Z,30.3288,-87.8293,1.843,6.62,1111122 
DISL,ioos:station:DISL:BSCA:1,2013-06-06T06:30:00Z,30.3288,-87.8293,1.775,6.7,1111122 
DISL,ioos:station:DISL:BSCA:1,2013-06-06T07:00:00Z,30.3288,-87.8293,1.772,6.73,1111122 
DISL,ioos:station:DISL:BSCA:1,2013-06-06T07:30:00Z,30.3288,-87.8293,1.797,6.64,1111122 
DISL,ioos:station:DISL:BSCA:1,2013-06-06T08:00:00Z,30.3288,-87.8293,1.88,6.64,1111122 
DISL,ioos:station:DISL:BSCA:1,2013-06-06T08:30:00Z,30.3288,-87.8293,1.983,6.56,1111122 
DISL,ioos:station:DISL:BSCA:1,2013-06-06T09:00:00Z,30.3288,-87.8293,2.052,5.46,1111122 
DISL,ioos:station:DISL:BSCA:1,2013-06-06T09:30:00Z,30.3288,-87.8293,2.074,5.72,1111122 
DISL,ioos:station:DISL:BSCA:1,2013-06-06T10:00:00Z,30.3288,-87.8293,2.077,4.62,1111122 
DISL,ioos:station:DISL:BSCA:1,2013-06-06T10:30:00Z,30.3288,-87.8293,2.08,4.86,1111122 
DISL,ioos:station:DISL:BSCA:1,2013-06-06T11:00:00Z,30.3288,-87.8293,2.09,3.66,1111122 
DISL,ioos:station:DISL:BSCA:1,2013-06-06T11:30:00Z,30.3288,-87.8293,2.129,4.55,1111122 
DISL,ioos:station:DISL:BSCA:1,2013-06-06T12:00:00Z,30.3288,-87.8293,2.174,4.67,1111122 
DISL,ioos:station:DISL:BSCA:1,2013-06-06T12:30:00Z,30.3288,-87.8293,2.204,4.64,1111122 
DISL,ioos:station:DISL:BSCA:1,2013-06-06T13:00:00Z,30.3288,-87.8293,2.234,4.5,1111122 
DISL,ioos:station:DISL:BSCA:1,2013-06-06T13:30:00Z,30.3288,-87.8293,2.243,4.44,1111122 
DISL,ioos:station:DISL:BSCA:1,2013-06-06T14:00:00Z,30.3288,-87.8293,2.266,4.26,1111122 
DISL,ioos:station:DISL:BSCA:1,2013-06-06T14:30:00Z,30.3288,-87.8293,2.261,4.22,1111122 
DISL,ioos:station:DISL:BSCA:1,2013-06-06T15:00:00Z,30.3288,-87.8293,2.264,4.25,1111122 
DISL,ioos:station:DISL:BSCA:1,2013-06-06T15:30:00Z,30.3288,-87.8293,2.259,4.14,1111122 